Hourly Data Report for July 05, 2021

BONAVISTA
NEWFOUNDLAND
Current Station Operator: ECCC - MSC

48°40'02.000" N
53°06'51.000" W
25.60 m
8400601
71178
AVA

Download Data

Hourly Data (July 2021)
Hourly Data Report for July 5, 2021
TIME
LST
Temp Definition
°C
Dew Point Definition
°C
Rel Hum Definition
%
Precip. Amount Definition
mm

Wind Dir Definition
10's deg

Wind Spd Definition
km/h
Visibility Definition
km
Stn Press Definition
kPa
Hmdx Definition


Wind Chill Definition


Weather Definition


00:30 8.7 7.8 94 0.0 11 22   101.06     LegendNANA
01:30 8.5 8.0 96 0.3 9 26   100.99     LegendNANA
02:30 8.5 8.0 97 0.3 10 30   100.89     LegendNANA
03:30 8.6 8.1 97 0.3 10 28   100.88     LegendNANA
04:30 8.6 8.2 97 0.2 11 21   100.88     LegendNANA
05:30 8.8 8.4 97 0.2 12 26   100.83     LegendNANA
06:30 9.0 8.6 97 0.0 13 24   100.82     LegendNANA
07:30 9.4 8.9 97 0.0 14 29   100.76     LegendNANA
08:30 10.0 9.3 95 0.0 15 37   100.70     LegendNANA
09:30 10.8 9.5 92 0.0 15 38   100.71     LegendNANA
10:30 11.4 9.6 89 0.0 15 32   100.67     LegendNANA
11:30 11.5 9.9 90 0.0 16 21   100.68     LegendNANA
12:30 12.7 11.4 92 0.0 16 20   100.57     LegendNANA
13:30 16.8 13.5 81 0.0 20 21   100.50     LegendNANA
14:30 17.0 12.0 72 0.0 21 30   100.46     LegendNANA
15:30 16.2 11.1 72 0.0 20 34   100.44     LegendNANA
16:30 14.2 10.3 77 0.0 21 26   100.41     LegendNANA
17:30 14.3 10.7 79 0.0 20 23   100.42     LegendNANA
18:30 12.7 9.8 83 0.0 20 26   100.42     LegendNANA
19:30 11.9 9.6 86 0.0 20 33   100.41     LegendNANA
20:30 11.8 9.7 87 0.0 20 23   100.40     LegendNANA
21:30 11.5 9.6 88 0.0 21 23   100.37     LegendNANA
22:30 11.3 9.8 90 0.0 21 23   100.32     LegendNANA
23:30 11.2 9.6 90 0.0 21 19   100.29     LegendNANA

Notes on Data Quality.

Legend

  • E = Estimated
  • M = Missing
  • NA = Not Available*
  • [empty] = Indicates an unobserved value
Date modified: